www.pogodaiklimat.ru

Погода и климат >> Архив погоды >> Оман >> Umzamaim


ПОГОДА в Umzamaim

  • Прогноз погоды в Umzamaim
  • Монитор погоды в Umzamaim
  • Климат города

АРХИВ ПОГОДЫ в Umzamaim

Время (UTC), дата Ветер
(напр.,м/с)
 
Видим.   Явления Облачность Т
(С)
Тd
(С)
f
(%)
Тe
(С)
Тes
(С)
Комфортность P
(гПа)
Po
(гПа)
Тmin
(С)
Tmax
(С)
R
(мм)
R24
(мм)
S
(см)
18 16.06 СЗ 10 н/о н/о +38.9 +0.7 9 +35 +35 очень
жарко
999.9 986.1 +47.7
21 16.06 СЗ 10 н/о н/о +35.0 +2.2 13 +32 +32 жарко 999.9 986.0
00 17.06 СЗ 6 н/о н/о +31.1 +2.5 16 +29 +29 жарко 1000.4 986.3
03 17.06 З 4 н/о н/о +29.9 +2.9 18 +28 +28 жарко 1001.4 987.2
06 17.06 З 11 н/о н/о +40.3 -2.2 7 +36 +36 очень
жарко
1001.0 987.3 +28.6
09 17.06 СЗ 11 н/о н/о +43.8 -7.3 4 +39 +39 очень
жарко
999.2 985.6
12 17.06 СЗ 8 н/о н/о +44.2 -9.3 3 +40 +40 очень
жарко
997.3 983.8 2
15 17.06 З 6 н/о н/о +41.5 -9.8 4 +37 +37 очень
жарко
997.6 983.9
18 17.06 ЮЗ 3 н/о н/о +35.3 -7.9 6 +31 +31 жарко 998.9 985.0 +44.6
21 17.06 СЗ 4 н/о н/о +31.6 +1.0 14 +27 +27 жарко 998.7 984.6
00 18.06 Ю 2 н/о н/о +28.8 +9.8 31 +29 +29 жарко 998.7 984.6 2
03 18.06 Ю 3 н/о н/о +28.4 +11.3 35 +29 +29 жарко 1000.6 986.4
06 18.06 ЮЗ 2 н/о н/о +39.2 +3.7 11 +36 +36 очень
жарко
1000.4 986.6 +26.7
09 18.06 Ю 3 н/о н/о +42.9 -0.6 7 +39 +39 очень
жарко
998.2 984.6
12 18.06 ЮЗ 7 н/о н/о +44.3 -4.5 5 +40 +40 очень
жарко
995.9 982.4
15 18.06 ЮЗ 6 н/о н/о +41.8 +7.4 13 +37 +37 очень
жарко
996.6 983.0
18 18.06 Ю 6 н/о н/о +34.7 +18.4 38 +39 +39 очень
душно
998.8 985.0 +45.7
21 18.06 Ю 6 н/о н/о +28.8 +23.1 71 +39 +39 очень
душно
998.5 984.5
00 19.06 Ю 6 н/о н/о +25.9 +23.5 87 +35 +35 очень
душно
999.1 984.8
03 19.06 Ю 6 н/о н/о +25.5 +23.6 89 +35 +35 очень
душно
1000.4 986.2
06 19.06 ЮЗ 5 н/о н/о +35.2 +19.3 39 +40 +40 очень
душно
1000.8 986.9 +24.8
09 19.06 Ю 4 н/о н/о +41.4 +12.8 19 +41 +41 опасность
перегрева
999.2 985.6
12 19.06 ЮВ 4 н/о н/о +44.2 +5.9 10 +41 +41 опасность
перегрева
997.4 984.0
15 19.06 В 7 н/о н/о +41.3 +13.8 20 +42 +42 опасность
перегрева
997.9 984.4
18 19.06 Ю 7 н/о н/о +31.5 +23.2 61 +42 +42 опасность
перегрева
1000.7 986.7 +44.3
21 19.06 Ю 9 н/о н/о +27.9 +24.2 80 +39 +39 очень
душно
999.8 985.7
00 20.06 Ю 6 н/о н/о +26.5 +24.5 89 +37 +37 очень
душно
1000.5 986.3
03 20.06 Ю 6 н/о н/о +26.3 +24.5 90 +37 +37 очень
душно
1002.0 987.8
06 20.06 Ю 3 н/о н/о +32.9 +22.8 55 +43 +43 опасность
перегрева
1002.5 988.5 +25.6
09 20.06 ЮЗ 3 н/о н/о +40.5 +17.3 26 +43 +43 опасность
перегрева
1000.2 986.5
12 20.06 ЮВ 3 н/о н/о +43.0 +15.5 20 +41 +41 опасность
перегрева
998.5 984.9
15 20.06 Ю 8 н/о н/о +39.5 +17.6 28 +42 +42 опасность
перегрева
999.4 985.7
18 20.06 Ю 8 н/о н/о +30.2 +23.7 68 +41 +41 опасность
перегрева
1001.8 987.7 +43.3
21 20.06 Ю 9 н/о н/о +26.5 +24.7 90 +38 +38 очень
душно
1001.1 986.8
00 21.06 Ю 7 н/о н/о +25.6 +24.3 93 +36 +36 очень
душно
1001.6 987.3
03 21.06 Ю 6 н/о н/о +26.3 +24.7 91 +37 +37 очень
душно
1003.6 989.3
06 21.06 Ю 9 н/о н/о +32.4 +23.5 59 +43 +43 опасность
перегрева
1003.7 989.7 +25.4
09 21.06 Ю 6 н/о н/о +38.9 +18.8 31 +43 +43 опасность
перегрева
1001.0 987.3
12 21.06 Ю 5 н/о н/о +41.8 +13.5 19 +42 +42 опасность
перегрева
999.2 985.7
15 21.06 Ю 7 н/о н/о +38.3 +19.5 34 +43 +43 опасность
перегрева
1000.0 986.3
18 21.06 Ю 8 н/о н/о +30.3 +23.2 66 +41 +41 опасность
перегрева
1002.0 987.9 +42.1
21 21.06 Ю 6 н/о н/о +27.1 +23.5 81 +37 +37 очень
душно
1002.0 987.8
00 22.06 Ю 8 н/о н/о +25.1 +23.8 93 +34 +34 очень
душно
1001.3 987.0
03 22.06 Ю 9 н/о н/о +25.1 +23.9 93 +34 +34 очень
душно
1002.0 987.7
06 22.06 Ю 8 н/о н/о +32.7 +21.7 52 +41 +41 опасность
перегрева
1002.8 988.8 +24.2
09 22.06 Ю 6 н/о н/о +40.7 +14.9 22 +42 +42 опасность
перегрева
1000.7 987.0
12 22.06 ЮЗ 6 н/о н/о +42.7 +9.8 14 +41 +41 опасность
перегрева
998.3 984.8
15 22.06 ЮЗ 5 н/о н/о +40.4 +11.2 18 +39 +39 очень
жарко
998.6 985.0
18 22.06 Ю 9 н/о н/о +31.7 +23.2 61 +42 +42 опасность
перегрева
1000.2 986.2 +43.0
21 22.06 Ю 9 н/о н/о +28.3 +23.7 76 +39 +39 очень
душно
999.6 985.5
00 23.06 Ю 8 н/о н/о +25.8 +24.3 91 +36 +36 очень
душно
1000.5 985.7
03 23.06 ЮЗ 8 н/о н/о +25.8 +24.2 91 +36 +36 очень
душно
1001.5 987.2
06 23.06 ЮЗ 9 н/о н/о +33.2 +21.7 51 +41 +41 опасность
перегрева
1001.4 987.5 +25.1
09 23.06 ЮЗ 5 н/о н/о +40.3 +15.0 23 +41 +41 опасность
перегрева
999.6 986.0
12 23.06 З 4 н/о н/о +42.8 +10.3 15 +42 +42 опасность
перегрева
997.2 983.7
15 23.06 ЮЗ 4 н/о н/о +41.8 +8.4 14 +40 +40 очень
жарко
997.1 983.6

 

Местоположение метеостанции Umzamaim (Оман): широта 20.80 долгота 57.12 высота над уровнем моря 126 м.

В архиве по умолчанию представлена погода в Umzamaim за последнюю неделю. Архивные данные за месяц целиком и за предыдущие месяцы, начиная с января 2011 года, Вы можете получить, выбрав интересующий диапазон дат из раскрывающегося списка и нажав кнопку "Ввод!".


*Определитесь, кто Вы:
робот инопланетянин человек

Внимание! Время в таблицах - всемирное. Для получения местного времени необходимо прибавить поправку, которая в Umzamaim равна 4 ч.

Смотрите также архив погоды в соседних городах и на ближайших метеорологических станциях:

Погода в Qarn Alam (Оман) (64 км)
Погода в Yaaloni (Оман) (96 км)
Погода в Joba (Оман) (118 км)
Погода в Duqm (Оман) (142 км)
Погода в Adam (Оман) (181 км)
Погода в Fahud (Оман) (183 км)
Погода в Masirah (Оман) (186 км)
Погода в Al Mudhaibi (Оман) (217 км)
Погода в Nizwa (Оман) (232 км)
Погода в Bahla (Оман) (243 км)

Пояснения к столбцам:

Ветер - указаны скорость ветра в м/с - средняя за 10 мин, порывы в срок и между сроками (в фигурных скобках) и направление, откуда дует ветер: С - северный, СВ - северо-восточный, В - восточный, ЮВ - юго-восточный, Ю - южный, ЮЗ - юго-западный, З - западный, СЗ - северо-западный.
Видимость - горизонтальная дальность видимости в метрах или километрах. При видимости от 1 до 10 км при отсутствии осадков обычно наблюдается дымка, при ухудшении видимости до 1 км и менее - туман. В сухую погоду видимость может ухудшаться дымом, пылью или мглою.
Явления - указаны атмосферные явления, наблюдавшиеся в срок или в последний час перед сроком; фигурными скобками обозначены явления, наблюдавшиеся между сроками (за 1-3 часа до срока); квадратными скобками обозначены град или гололедные отложения с указанием их диаметра в мм.
Облачность - указаны через наклонную черту общая и нижняя облачность в баллах и высота нижней границы облаков в метрах; квадратными скобками обозначены формы облаков: Ci - перистые, Cs - перисто-слоистые, Cc - перисто-кучевые, Ac - высококучевые, As - высокослоистые, Sc - слоисто-кучевые, Ns - слоисто-дождевые, Cu - кучевые, Cb - кучево-дождевые. Подробнее классификацию облаков см. в Атласе облаков (PDF).
T - Температура воздуха - температура, измеренная на высоте 2 м над землей.
Td - Температура точки росы - температура, при понижении до которой содержащийся в воздухе водяной пар достигнет насыщения.
f - Относительная влажность воздуха - влажноcть воздуха, измеренная на высоте 2 м над землей.
Te - Эффективная температура - температура, которую ощущает одетый по сезону человек в тени. Характеристика душности погоды. При расчете учитывается влияние влажности воздуха и скорости ветра на теплоощущения человека.
Tes - Эффективная температура на солнце - температура, которую ощущает человек, с поправкой на солнечный нагрев. Характеристика знойности погоды. Зависит от высоты солнца над горизонтом, облачности и скорости ветра. Ночью, в пасмурную погоду, а также при ветре 12 м/с и более поправка равна нулю.
P - Атмосферное давление - приведенное к уровню моря атмосферное давление.
Po - Атмосферное давление - измеренное на уровне метеостанции атмосферное давление.
Tmin - Минимальная температура - минимум температуры воздуха на высоте 2 м над землей.
Tmax - Максимальная температура - максимум температуры воздуха на высоте 2 м над землей.
R - Количество осадков - Количество выпавших осадков за период времени, мм. При наведении курсора мыши на число - период времени, за который выпало указанное количество осадков.
R24 - Количество осадков - Количество выпавших осадков за 24 часа, мм.
S - Снежный покров - Высота снежного покрова, см. При наведении курсора мыши на число - состояние снежного покрова и степень покрытия местности в баллах.